Tracking 30703 objects as of 13-Jun-2025
HD Live streaming from Space Station
objects crossing your sky now

CZ-4 DEB

Track CZ-4 DEB now!
10-day predictions


NORAD ID: 20853
Int'l Code: 1990-081R
Perigee: 685.5 km
Apogee: 710.4 km
Inclination: 98.2 °
Period: 98.6 minutes
Semi major axis: 7068 km
RCS: 0.6316 m2 (medium)
Launch date: September 3, 1990
Source: People's Republic of China (PRC)
Launch site: Taiyaun Space Center, China (TSC)

Note: This is SATELLITE DEBRIS
Your satellite tracking list
Your tracking list is empty




NASA's NSSDC Master Catalog

Two Line Element Set (TLE):
1 20853U 90081R   25163.55972850  .00006528  00000-0  13448-2 0  9997
2 20853  98.2415 167.6303 0017650   3.6241 110.6822 14.60729834804578
Source of the keplerian elements: AFSPC